Geely Xingzuo 01 zu 05 xing

operational
NORAD ID: 52789 Int'l Des: 2022-058 Owner: GEESP Country: CN Constellation: geesatcom
LEOCIRCULAR

关于 Geely Xingzuo 01 zu 05 xing

正在加载描述...

实时位置

正在加载3D地球...

即将过境

高度历史

Altitude vs Time

uPlot chart will show altitude changes over time

两行轨道根数

1 52789U 22058E 26062.10673444 .00006039 00000-0 50489-3 0 9990
2 52789 49.9883 325.2752 0003776 81.3962 278.7410 14.99635821204285
Epoch: Mar 3, 2026 • Age: 28 hours

当前状态

高度 568.0 km
速度 7.58 km/s
星下点 33.96°N, 127.09°E
发射日期 Jun 2, 2022
运行时间 3.7 years
类型 other

技术详情

分类 Payload
质量 130.00 kg
干质量 130.00 kg
总质量 130.00 kg
长度 1.00 m
直径 0.50 m
跨度 2.00 m
形状 Box + 2 pan
制造商 GWCG
平台类型 GPS100
阶段状态 In Orbit
所有者/国家 GEESP/CN

大型星座

Loading constellations...